User: anonymous   Login
Location: Unspecified
(0.0000°N, 0.0000°E)
Time: 05:27:29
(UTC+00:00)
Language:

Picosat 3 - Orbit

View from above orbital plane
View from above orbital plane
View from above satellite
View from above satellite

Ground track
Ground track

The orbit data is extracted from the following two-line orbital elements,

1 26091U 00004J   19083.19428775  .00000162  00000-0  58981-4 0  9990
2 26091 100.2034 316.8596 0029654  37.0991 323.2239 14.49012942  7033
Epoch (UTC): 24 March 2019 04:39:46
Eccentricity: 0.0029654
inclination: 100.2034°
perigee height: 708 km
apogee height: 750 km
right ascension of ascending node: 316.8596°
argument of perigee: 37.0991°
revolutions per day: 14.49012942
mean anomaly at epoch: 323.2239°
orbit number at epoch: 703

The dashed part of the orbit path shows where the satellite is in the earth's shadow,  

DLR